Weather History for Doylestown, PA

Change the Weather History Date:

Friday, August 2, 2013

  Actual Average (KTTN) Record (KTTN)
Temperature  
Mean Temperature 72 °F 76 °F  
Max Temperature 82 °F 85 °F 100 °F (2002)
Min Temperature 62 °F 66 °F 55 °F (1998)
Degree Days  
Heating Degree Days 0 0  
Month to date heating degree days 0  
Since 1 June heating degree days 24  
Since 1 July heating degree days 0  
Cooling Degree Days 7 10  
Month to date cooling degree days 21  
Year to date cooling degree days 598  
Since 1 June cooling degree days 541  
Growing Degree Days 22 (Base 50)    
Moisture  
Dew Point 63 °F    
Average Humidity 82    
Maximum Humidity 100    
Minimum Humidity 45    
Precipitation  
Precipitation 0.01 in 0.15 in 2.05 in (1875)
Month to date precipitation 0.30  
Year to date precipitation 27.18  
Sea Level Pressure  
Sea Level Pressure 29.88 in    
Wind  
Wind Speed 2 mph (West)    
Max Wind Speed 10 mph    
Max Gust Speed 17 mph    
Visibility 8 miles    
Events      
T = Trace of Precipitation, MM = Missing Value Source: NWS Daily Summary

Daily Weather History Graph

Daily Weather History Graph

Search for Another Location

Airport:

Trip Planner

Search our weather history database for the weather conditions in past years. The results will help you decide how hot, cold, wet, or windy it might be!

Date:

Astronomy

Aug. 02, 2013 Rise Set
Actual Time 5:59 AM EDT 8:13 PM EDT
Civil Twilight 5:28 AM EDT 8:43 PM EDT
Nautical Twilight 4:51 AM EDT 9:21 PM EDT
Astronomical Twilight 4:10 AM EDT 10:02 PM EDT
Moon 2:18 AM EDT (8/2) 5:09 PM EDT (8/2)
Length of Visible Light 15h 15m
Length of Day
14h 14m
Waning Crescent, 16% of the Moon is Illuminated
Aug 2
Waning Crescent
Aug 6
New
Aug 14
First Quarter
Aug 20
Full
Aug 28
Last Quarter

Hourly Weather History & Observations

Time (EDT) Temp. Heat Index Dew Point Humidity Pressure Visibility Wind Dir Wind Speed Gust Speed Precip Events Conditions
12:49 AM 66.2 °F - 66.2 °F 100% 29.84 in 10.0 mi Calm Calm - N/A   Mostly Cloudy
12:54 AM 66.9 °F - 66.9 °F 100% 29.83 in 9.0 mi Calm Calm - N/A   Mostly Cloudy
1:27 AM 68.0 °F - 68.0 °F 100% 29.84 in 6.0 mi WNW 3.5 mph - N/A   Overcast
1:54 AM 68.0 °F - 68.0 °F 100% 29.83 in 7.0 mi Calm Calm - N/A   Overcast
2:54 AM 68.0 °F - 68.0 °F 100% 29.82 in 6.0 mi Calm Calm - N/A   Scattered Clouds
3:54 AM 66.0 °F - 64.9 °F 96% 29.83 in 8.0 mi Calm Calm - N/A   Clear
4:11 AM 64.4 °F - 64.4 °F 100% 29.84 in 2.0 mi Calm Calm - N/A   Clear
4:18 AM 64.4 °F - 64.4 °F 100% 29.84 in 2.0 mi Calm Calm - N/A   Partly Cloudy
4:30 AM 64.4 °F - 64.4 °F 100% 29.84 in 4.0 mi Calm Calm - N/A   Clear
4:54 AM 64.0 °F - 64.0 °F 100% 29.84 in 9.0 mi Calm Calm - N/A   Clear
5:48 AM 62.6 °F - 62.6 °F 100% 29.87 in 1.8 mi Calm Calm - N/A   Clear
5:54 AM 62.1 °F - 62.1 °F 100% 29.87 in 1.5 mi Calm Calm - N/A   Clear
5:58 AM 62.6 °F - 62.6 °F 100% 29.88 in 3.0 mi Calm Calm - N/A   Clear
6:03 AM 62.6 °F - 62.6 °F 100% 29.88 in 1.8 mi Calm Calm - N/A   Partly Cloudy
6:13 AM 62.6 °F - 62.6 °F 100% 29.88 in 3.0 mi Calm Calm - N/A   Clear
6:54 AM 64.0 °F - 64.0 °F 100% 29.88 in 6.0 mi Calm Calm - N/A   Clear
7:54 AM 68.0 °F - 66.0 °F 93% 29.89 in 9.0 mi Calm Calm - 0.01 in   Clear
8:54 AM 73.0 °F - 64.0 °F 73% 29.90 in 10.0 mi NW 4.6 mph - N/A   Clear
9:54 AM 75.0 °F - 64.0 °F 69% 29.91 in 10.0 mi NW 5.8 mph - N/A   Clear
10:54 AM 77.0 °F - 64.0 °F 64% 29.92 in 10.0 mi Calm Calm - N/A   Scattered Clouds
11:54 AM 77.0 °F - 61.0 °F 58% 29.92 in 10.0 mi WSW 5.8 mph - N/A   Partly Cloudy
12:54 PM 80.1 °F 81.1 °F 61.0 °F 52% 29.91 in 10.0 mi SW 6.9 mph - N/A   Clear
1:54 PM 80.1 °F 81.1 °F 61.0 °F 52% 29.90 in 10.0 mi WNW 10.4 mph - N/A   Clear
2:54 PM 82.0 °F 83.0 °F 62.1 °F 51% 29.89 in 10.0 mi West 9.2 mph 17.3 mph N/A   Partly Cloudy
3:54 PM 81.0 °F 81.1 °F 57.9 °F 45% 29.89 in 10.0 mi West 8.1 mph - N/A   Clear
4:54 PM 79.0 °F - 60.1 °F 52% 29.89 in 10.0 mi Variable 6.9 mph - N/A   Mostly Cloudy
5:54 PM 78.1 °F - 61.0 °F 56% 29.88 in 10.0 mi Variable 5.8 mph - N/A   Scattered Clouds
6:54 PM 77.0 °F - 62.1 °F 60% 29.86 in 10.0 mi SW 6.9 mph 17.3 mph N/A   Clear
7:54 PM 73.9 °F - 61.0 °F 64% 29.89 in 10.0 mi Variable 4.6 mph - N/A   Partly Cloudy
8:54 PM 73.9 °F - 62.1 °F 66% 29.91 in 10.0 mi Calm Calm - N/A   Clear
9:54 PM 70.0 °F - 62.1 °F 76% 29.92 in 10.0 mi Calm Calm - N/A   Clear
10:54 PM 66.9 °F - 62.1 °F 84% 29.93 in 10.0 mi Calm Calm - N/A   Clear
11:54 PM 66.9 °F - 60.1 °F 79% 29.93 in 10.0 mi Calm Calm - N/A   Clear